Year,Month,Day,Hour,Minute,Value (Times are PST for temperature in C)
2018,07,17,00,00,15.60
2018,07,17,00,01,15.70
2018,07,17,00,02,15.80
2018,07,17,00,03,15.90
2018,07,17,00,04,16.00
2018,07,17,00,05,16.20
2018,07,17,00,06,16.30
2018,07,17,00,07,16.40
2018,07,17,00,08,16.60
2018,07,17,00,09,16.80
2018,07,17,00,10,16.90
2018,07,17,00,11,17.10
2018,07,17,00,12,17.30
2018,07,17,00,13,17.40
2018,07,17,00,14,17.60
2018,07,17,00,15,17.70
2018,07,17,00,16,17.70
2018,07,17,00,17,17.80
2018,07,17,00,18,17.90
2018,07,17,00,19,17.90
2018,07,17,00,20,18.00
2018,07,17,00,21,18.10
2018,07,17,00,22,18.20
2018,07,17,00,23,18.20
2018,07,17,00,24,18.20
2018,07,17,00,25,18.20
2018,07,17,00,26,18.20
2018,07,17,00,27,18.20
2018,07,17,00,28,18.20
2018,07,17,00,29,18.20
2018,07,17,00,30,18.20
2018,07,17,00,31,18.20
2018,07,17,00,32,18.30
2018,07,17,00,33,18.30
2018,07,17,00,34,18.30
2018,07,17,00,35,18.30
2018,07,17,00,36,18.30
2018,07,17,00,37,18.30
2018,07,17,00,38,18.30
2018,07,17,00,39,18.30
2018,07,17,00,40,18.30
2018,07,17,00,41,18.30
2018,07,17,00,42,18.30
2018,07,17,00,43,18.30
2018,07,17,00,44,18.30
2018,07,17,00,45,18.30
2018,07,17,00,46,18.20
2018,07,17,00,47,18.20
2018,07,17,00,48,18.20
2018,07,17,00,49,18.20
2018,07,17,00,50,18.20
2018,07,17,00,51,18.20
2018,07,17,00,52,18.10
2018,07,17,00,53,18.10
2018,07,17,00,54,18.00
2018,07,17,00,55,17.90
2018,07,17,00,56,17.90
2018,07,17,00,57,17.90
2018,07,17,00,58,17.80
2018,07,17,00,59,17.80
2018,07,17,01,00,17.70
2018,07,17,01,01,17.60
2018,07,17,01,02,17.60
2018,07,17,01,03,17.50
2018,07,17,01,04,17.50
2018,07,17,01,05,17.40
2018,07,17,01,06,17.40
2018,07,17,01,07,17.40
2018,07,17,01,08,17.30
2018,07,17,01,09,17.30
2018,07,17,01,10,17.30
2018,07,17,01,11,17.20
2018,07,17,01,12,17.20
2018,07,17,01,13,17.10
2018,07,17,01,14,17.10
2018,07,17,01,15,17.10
2018,07,17,01,16,17.00
2018,07,17,01,17,17.00
2018,07,17,01,18,17.00
2018,07,17,01,19,16.90
2018,07,17,01,20,16.90
2018,07,17,01,21,16.90
2018,07,17,01,22,16.90
2018,07,17,01,23,16.80
2018,07,17,01,24,16.80
2018,07,17,01,25,16.80
2018,07,17,01,26,16.80
2018,07,17,01,27,16.70
2018,07,17,01,28,16.70
2018,07,17,01,29,16.70
2018,07,17,01,30,16.70
2018,07,17,01,31,16.70
2018,07,17,01,32,16.70
2018,07,17,01,33,16.70
2018,07,17,01,34,16.70
2018,07,17,01,35,16.70
2018,07,17,01,36,16.70
2018,07,17,01,37,16.70
2018,07,17,01,38,16.70
2018,07,17,01,39,16.70
2018,07,17,01,40,16.70
2018,07,17,01,41,16.70
2018,07,17,01,42,16.70
2018,07,17,01,43,16.70
2018,07,17,01,44,16.70
2018,07,17,01,45,16.50
2018,07,17,01,46,16.40
2018,07,17,01,47,16.30
2018,07,17,01,48,16.20
2018,07,17,01,49,16.10
2018,07,17,01,50,15.90
2018,07,17,01,51,15.80
2018,07,17,01,52,15.60
2018,07,17,01,53,15.50
2018,07,17,01,54,15.40
2018,07,17,01,55,15.30
2018,07,17,01,56,15.10
2018,07,17,01,57,15.10
2018,07,17,01,58,15.00
2018,07,17,01,59,15.00
2018,07,17,02,00,14.90
2018,07,17,02,01,14.90
2018,07,17,02,02,14.90
2018,07,17,02,03,14.80
2018,07,17,02,04,14.80
2018,07,17,02,05,14.80
2018,07,17,02,06,14.80
2018,07,17,02,07,14.80
2018,07,17,02,08,14.80
2018,07,17,02,09,14.80
2018,07,17,02,10,14.80
2018,07,17,02,11,14.80
2018,07,17,02,12,14.80
2018,07,17,02,13,14.80
2018,07,17,02,14,14.80
2018,07,17,02,15,14.80
2018,07,17,02,16,14.80
2018,07,17,02,17,14.80
2018,07,17,02,18,14.80
2018,07,17,02,19,14.80
2018,07,17,02,20,14.80
2018,07,17,02,21,14.80
2018,07,17,02,22,14.80
2018,07,17,02,23,14.80
2018,07,17,02,24,14.80
2018,07,17,02,25,14.80
2018,07,17,02,26,14.80
2018,07,17,02,27,14.80
2018,07,17,02,28,14.70
2018,07,17,02,29,14.70
2018,07,17,02,30,14.60
2018,07,17,02,31,14.60
2018,07,17,02,32,14.50
2018,07,17,02,33,14.50
2018,07,17,02,34,14.50
2018,07,17,02,35,14.50
2018,07,17,02,36,14.40
2018,07,17,02,37,14.50
2018,07,17,02,38,14.50
2018,07,17,02,39,14.50
2018,07,17,02,40,14.60
2018,07,17,02,41,14.60
2018,07,17,02,42,14.70
2018,07,17,02,43,14.80
2018,07,17,02,44,14.80
2018,07,17,02,45,14.90
2018,07,17,02,46,14.90
2018,07,17,02,47,15.00
2018,07,17,02,48,15.10
2018,07,17,02,49,15.10
2018,07,17,02,50,15.20
2018,07,17,02,51,15.30
2018,07,17,02,52,15.30
2018,07,17,02,53,15.30
2018,07,17,02,54,15.40
2018,07,17,02,55,15.40
2018,07,17,02,56,15.50
2018,07,17,02,57,15.50
2018,07,17,02,58,15.50
2018,07,17,02,59,15.60
2018,07,17,03,00,15.60
2018,07,17,03,01,15.70
2018,07,17,03,02,15.70
2018,07,17,03,03,15.80
2018,07,17,03,04,15.80
2018,07,17,03,05,15.80
2018,07,17,03,06,15.80
2018,07,17,03,07,15.90
2018,07,17,03,08,15.90
2018,07,17,03,09,15.90
2018,07,17,03,10,16.10
2018,07,17,03,11,16.10
2018,07,17,03,12,16.10
2018,07,17,03,13,16.10
2018,07,17,03,14,16.10
2018,07,17,03,15,16.10
2018,07,17,03,16,16.10
2018,07,17,03,17,16.10
2018,07,17,03,18,16.10
2018,07,17,03,19,16.10
2018,07,17,03,20,16.10
2018,07,17,03,21,16.10
2018,07,17,03,22,16.10
2018,07,17,03,23,16.10
2018,07,17,03,24,16.10
2018,07,17,03,25,16.10
2018,07,17,03,26,16.10
2018,07,17,03,27,16.10
2018,07,17,03,28,16.10
2018,07,17,03,29,16.10
2018,07,17,03,30,16.10
2018,07,17,03,31,16.10
2018,07,17,03,32,16.10
2018,07,17,03,33,16.20
2018,07,17,03,34,16.20
2018,07,17,03,35,16.20
2018,07,17,03,36,16.20
2018,07,17,03,37,16.30
2018,07,17,03,38,16.30
2018,07,17,03,39,16.30
2018,07,17,03,40,16.30
2018,07,17,03,41,16.30
2018,07,17,03,42,16.30
2018,07,17,03,43,16.30
2018,07,17,03,44,16.30
2018,07,17,03,45,16.30
2018,07,17,03,46,16.30
2018,07,17,03,47,16.30
2018,07,17,03,48,16.30
2018,07,17,03,49,16.30
2018,07,17,03,50,16.30
2018,07,17,03,51,16.30
2018,07,17,03,52,16.30
2018,07,17,03,53,16.30
2018,07,17,03,54,16.30
2018,07,17,03,55,16.30
2018,07,17,03,56,16.30
2018,07,17,03,57,16.30
2018,07,17,03,58,16.30
2018,07,17,03,59,16.30
2018,07,17,04,00,16.30
2018,07,17,04,01,16.30
2018,07,17,04,02,16.30
2018,07,17,04,03,16.30
2018,07,17,04,04,16.30
2018,07,17,04,05,16.30
2018,07,17,04,06,16.30
2018,07,17,04,07,16.30
2018,07,17,04,08,16.30
2018,07,17,04,09,16.30
2018,07,17,04,10,16.30
2018,07,17,04,11,16.20
2018,07,17,04,12,16.20
2018,07,17,04,13,16.20
2018,07,17,04,14,16.20
2018,07,17,04,15,16.20
2018,07,17,04,16,16.20
2018,07,17,04,17,16.10
2018,07,17,04,18,16.10
2018,07,17,04,19,16.10
2018,07,17,04,20,16.10
2018,07,17,04,21,16.10
2018,07,17,04,22,16.10
2018,07,17,04,23,16.00
2018,07,17,04,24,15.90
2018,07,17,04,25,15.90
2018,07,17,04,26,15.80
2018,07,17,04,27,15.80
2018,07,17,04,28,15.70
2018,07,17,04,29,15.60
2018,07,17,04,30,15.40
2018,07,17,04,31,15.20
2018,07,17,04,32,15.10
2018,07,17,04,33,15.00
2018,07,17,04,34,14.80
2018,07,17,04,35,14.70
2018,07,17,04,36,14.60
2018,07,17,04,37,14.50
2018,07,17,04,38,14.50
2018,07,17,04,39,14.40
2018,07,17,04,40,14.30
2018,07,17,04,41,14.20
2018,07,17,04,42,14.20
2018,07,17,04,43,14.10
2018,07,17,04,44,14.00
2018,07,17,04,45,13.90
2018,07,17,04,46,13.80
2018,07,17,04,47,13.70
2018,07,17,04,48,13.50
2018,07,17,04,49,13.40
2018,07,17,04,50,13.30
2018,07,17,04,51,13.30
2018,07,17,04,52,13.20
2018,07,17,04,53,13.10
2018,07,17,04,54,13.10
2018,07,17,04,55,13.00
2018,07,17,04,56,13.00
2018,07,17,04,57,12.90
2018,07,17,04,58,12.90
2018,07,17,04,59,12.90
2018,07,17,05,00,12.80
2018,07,17,05,01,12.80
2018,07,17,05,02,12.80
2018,07,17,05,03,12.80
2018,07,17,05,04,12.80
2018,07,17,05,05,12.80
2018,07,17,05,06,12.80
2018,07,17,05,07,12.80
2018,07,17,05,08,12.80
2018,07,17,05,09,12.80
2018,07,17,05,10,12.80
2018,07,17,05,11,12.80
2018,07,17,05,12,12.80
2018,07,17,05,13,12.80
2018,07,17,05,14,12.80
2018,07,17,05,15,12.80
2018,07,17,05,16,12.80
2018,07,17,05,17,12.80
2018,07,17,05,18,12.80
2018,07,17,05,19,12.80
2018,07,17,05,20,12.80
2018,07,17,05,21,12.70
2018,07,17,05,22,12.70
2018,07,17,05,23,12.70
2018,07,17,05,24,12.80
2018,07,17,05,25,12.80
2018,07,17,05,26,12.80
2018,07,17,05,27,12.80
2018,07,17,05,28,12.80
2018,07,17,05,29,12.80
2018,07,17,05,30,12.80
2018,07,17,05,31,12.80
2018,07,17,05,32,12.80
2018,07,17,05,33,12.70
2018,07,17,05,34,12.70
2018,07,17,05,35,12.70
2018,07,17,05,36,12.70
2018,07,17,05,37,12.70
2018,07,17,05,38,12.70
2018,07,17,05,39,12.70
2018,07,17,05,40,12.70
2018,07,17,05,41,12.70
2018,07,17,05,42,12.70
2018,07,17,05,43,12.70
2018,07,17,05,44,12.70
2018,07,17,05,45,12.70
2018,07,17,05,46,12.70
2018,07,17,05,47,12.80
2018,07,17,05,48,12.80
2018,07,17,05,49,12.80
2018,07,17,05,50,12.80
2018,07,17,05,51,12.90
2018,07,17,05,52,12.90
2018,07,17,05,53,13.00
2018,07,17,05,54,13.00
2018,07,17,05,55,13.10
2018,07,17,05,56,13.10
2018,07,17,05,57,13.10
2018,07,17,05,58,13.20
2018,07,17,05,59,13.20
2018,07,17,06,00,13.30
2018,07,17,06,01,13.30
2018,07,17,06,02,13.30
2018,07,17,06,03,13.40
2018,07,17,06,04,13.50
2018,07,17,06,05,13.50
2018,07,17,06,06,13.60
2018,07,17,06,07,13.60
2018,07,17,06,08,13.70
2018,07,17,06,09,13.70
2018,07,17,06,10,13.70
2018,07,17,06,11,13.70
2018,07,17,06,12,13.80
2018,07,17,06,13,13.80
2018,07,17,06,14,13.90
2018,07,17,06,15,13.90
2018,07,17,06,16,13.90
2018,07,17,06,17,14.00
2018,07,17,06,18,14.00
2018,07,17,06,19,14.00
2018,07,17,06,20,14.10
2018,07,17,06,21,14.10
2018,07,17,06,22,14.20
2018,07,17,06,23,14.20
2018,07,17,06,24,14.20
2018,07,17,06,25,14.20
2018,07,17,06,26,14.20
2018,07,17,06,27,14.20
2018,07,17,06,28,14.30
2018,07,17,06,29,14.30
2018,07,17,06,30,14.40
2018,07,17,06,31,14.40
2018,07,17,06,32,14.40
2018,07,17,06,33,14.50
2018,07,17,06,34,14.50
2018,07,17,06,35,14.50
2018,07,17,06,36,14.50
2018,07,17,06,37,14.60
2018,07,17,06,38,14.60
2018,07,17,06,39,14.60
2018,07,17,06,40,14.60
2018,07,17,06,41,14.70
2018,07,17,06,42,14.70
2018,07,17,06,43,14.70
2018,07,17,06,44,14.80
2018,07,17,06,45,14.80
2018,07,17,06,46,14.80
2018,07,17,06,47,14.90
2018,07,17,06,48,14.90
2018,07,17,06,49,15.00
2018,07,17,06,50,15.10
2018,07,17,06,51,15.10
2018,07,17,06,52,15.20
2018,07,17,06,53,15.30
2018,07,17,06,54,15.30
2018,07,17,06,55,15.30
2018,07,17,06,56,15.40
2018,07,17,06,57,15.50
2018,07,17,06,58,15.50
2018,07,17,06,59,15.60
2018,07,17,07,00,15.70
2018,07,17,07,01,15.70
2018,07,17,07,02,15.80
2018,07,17,07,03,15.80
2018,07,17,07,04,15.80
2018,07,17,07,05,15.80
2018,07,17,07,06,15.90
2018,07,17,07,07,16.00
2018,07,17,07,08,16.10
2018,07,17,07,09,16.10
2018,07,17,07,10,16.20
2018,07,17,07,11,16.30
2018,07,17,07,12,16.30
2018,07,17,07,13,16.40
2018,07,17,07,14,16.40
2018,07,17,07,15,16.50
2018,07,17,07,16,16.60
2018,07,17,07,17,16.70
2018,07,17,07,18,16.70
2018,07,17,07,19,16.70
2018,07,17,07,20,16.70
2018,07,17,07,21,16.70
2018,07,17,07,22,16.70
2018,07,17,07,23,16.70
2018,07,17,07,24,16.80
2018,07,17,07,25,16.80
2018,07,17,07,26,16.80
2018,07,17,07,27,16.90
2018,07,17,07,28,16.90
2018,07,17,07,29,16.90
2018,07,17,07,30,17.00
2018,07,17,07,31,17.00
2018,07,17,07,32,17.10
2018,07,17,07,33,17.10
2018,07,17,07,34,17.20
2018,07,17,07,35,17.20
2018,07,17,07,36,17.20
2018,07,17,07,37,17.20
2018,07,17,07,38,17.20
2018,07,17,07,39,17.20
2018,07,17,07,40,17.20
2018,07,17,07,41,17.20
2018,07,17,07,42,17.10
2018,07,17,07,43,17.20
2018,07,17,07,44,17.20
2018,07,17,07,45,17.30
2018,07,17,07,46,17.30
2018,07,17,07,47,17.30
2018,07,17,07,48,17.30
2018,07,17,07,49,17.30
2018,07,17,07,50,17.30
2018,07,17,07,51,17.40
2018,07,17,07,52,17.40
2018,07,17,07,53,17.40
2018,07,17,07,54,17.50
2018,07,17,07,55,17.50
2018,07,17,07,56,17.50
2018,07,17,07,57,17.50
2018,07,17,07,58,17.60
2018,07,17,07,59,17.70
2018,07,17,08,00,17.70
2018,07,17,08,01,17.70
2018,07,17,08,02,17.70
2018,07,17,08,03,17.70
2018,07,17,08,04,17.70
2018,07,17,08,05,17.70
2018,07,17,08,06,17.70
2018,07,17,08,07,17.70
2018,07,17,08,08,17.70
2018,07,17,08,09,17.70
2018,07,17,08,10,17.70
2018,07,17,08,11,17.80
2018,07,17,08,12,17.80
2018,07,17,08,13,17.80
2018,07,17,08,14,17.80
2018,07,17,08,15,17.80
2018,07,17,08,16,17.80
2018,07,17,08,17,17.80
2018,07,17,08,18,17.80
2018,07,17,08,19,17.80
2018,07,17,08,20,17.80
2018,07,17,08,21,17.90
2018,07,17,08,22,17.90
2018,07,17,08,23,17.90
2018,07,17,08,24,17.90
2018,07,17,08,25,17.90
2018,07,17,08,26,17.90
2018,07,17,08,27,18.00
2018,07,17,08,28,18.10
2018,07,17,08,29,18.10
2018,07,17,08,30,18.20
2018,07,17,08,31,18.20
2018,07,17,08,32,18.20
2018,07,17,08,33,18.20
2018,07,17,08,34,18.20
2018,07,17,08,35,18.20
2018,07,17,08,36,18.30
2018,07,17,08,37,18.30
2018,07,17,08,38,18.40
2018,07,17,08,39,18.40
2018,07,17,08,40,18.40
2018,07,17,08,41,18.50
2018,07,17,08,42,18.50
2018,07,17,08,43,18.50
2018,07,17,08,44,18.50
2018,07,17,08,45,18.40
2018,07,17,08,46,18.40
2018,07,17,08,47,18.40
2018,07,17,08,48,18.40
2018,07,17,08,49,18.30
2018,07,17,08,50,18.30
2018,07,17,08,51,18.20
2018,07,17,08,52,18.20
2018,07,17,08,53,18.30
2018,07,17,08,54,18.40
2018,07,17,08,55,18.40
2018,07,17,08,56,18.40
2018,07,17,08,57,18.30
2018,07,17,08,58,18.30
2018,07,17,08,59,18.30
2018,07,17,09,00,18.30
2018,07,17,09,01,18.20
2018,07,17,09,02,18.20
2018,07,17,09,03,18.20
2018,07,17,09,04,18.20
2018,07,17,09,05,18.20
2018,07,17,09,06,18.10
2018,07,17,09,07,18.00
2018,07,17,09,08,17.90
2018,07,17,09,09,17.80
2018,07,17,09,10,17.80
2018,07,17,09,11,17.80
2018,07,17,09,12,17.80
2018,07,17,09,13,17.90
2018,07,17,09,14,17.90
2018,07,17,09,15,17.90
2018,07,17,09,16,17.90
2018,07,17,09,17,17.90
2018,07,17,09,18,17.90
2018,07,17,09,19,18.00
2018,07,17,09,20,18.10
2018,07,17,09,21,18.10
2018,07,17,09,22,18.00
2018,07,17,09,23,17.90
2018,07,17,09,24,17.90
2018,07,17,09,25,17.90
2018,07,17,09,26,18.00
2018,07,17,09,27,17.90
2018,07,17,09,28,17.90
2018,07,17,09,29,17.90
2018,07,17,09,30,17.90
2018,07,17,09,31,17.90
2018,07,17,09,32,17.80
2018,07,17,09,33,17.80
2018,07,17,09,34,17.80
2018,07,17,09,35,17.80
2018,07,17,09,36,17.80
2018,07,17,09,37,17.90
2018,07,17,09,38,17.90
2018,07,17,09,39,17.90
2018,07,17,09,40,17.90
2018,07,17,09,41,17.90
2018,07,17,09,42,17.90
2018,07,17,09,43,18.10
2018,07,17,09,44,18.20
2018,07,17,09,45,18.20
2018,07,17,09,46,18.30
2018,07,17,09,47,18.40
2018,07,17,09,48,18.50
2018,07,17,09,49,18.60
2018,07,17,09,50,18.70
2018,07,17,09,51,18.80
2018,07,17,09,52,18.80
2018,07,17,09,53,18.80
2018,07,17,09,54,18.90
2018,07,17,09,55,19.00
2018,07,17,09,56,19.10
2018,07,17,09,57,19.10
2018,07,17,09,58,19.10
2018,07,17,09,59,19.10
2018,07,17,10,00,19.10
2018,07,17,10,01,19.10
2018,07,17,10,02,19.10
2018,07,17,10,03,19.20
2018,07,17,10,04,19.40
2018,07,17,10,05,19.60
2018,07,17,10,06,19.70
2018,07,17,10,07,19.90
2018,07,17,10,08,20.10
2018,07,17,10,09,20.20
2018,07,17,10,10,20.10
2018,07,17,10,11,20.00
2018,07,17,10,12,19.90
2018,07,17,10,13,19.90
2018,07,17,10,14,19.80
2018,07,17,10,15,19.80
2018,07,17,10,16,19.80
2018,07,17,10,17,19.80
2018,07,17,10,18,19.80
2018,07,17,10,19,19.90
2018,07,17,10,20,20.00
2018,07,17,10,21,20.10
2018,07,17,10,22,20.20
2018,07,17,10,23,20.40
2018,07,17,10,24,20.40
2018,07,17,10,25,20.50
2018,07,17,10,26,20.50
2018,07,17,10,27,20.40
2018,07,17,10,28,20.30
2018,07,17,10,29,20.20
2018,07,17,10,30,20.20
2018,07,17,10,31,20.20
2018,07,17,10,32,20.20
2018,07,17,10,33,20.20
2018,07,17,10,34,20.20
2018,07,17,10,35,20.20
2018,07,17,10,36,20.20
2018,07,17,10,37,20.20
2018,07,17,10,38,20.20
2018,07,17,10,39,20.10
2018,07,17,10,40,20.20
2018,07,17,10,41,20.20
2018,07,17,10,42,20.20
2018,07,17,10,43,20.20
2018,07,17,10,44,20.20
2018,07,17,10,45,20.20
2018,07,17,10,46,20.30
2018,07,17,10,47,20.40
2018,07,17,10,48,20.40
2018,07,17,10,49,20.50
2018,07,17,10,50,20.50
2018,07,17,10,51,20.50
2018,07,17,10,52,20.50
2018,07,17,10,53,20.50
2018,07,17,10,54,20.50
2018,07,17,10,55,20.40
2018,07,17,10,56,20.20
2018,07,17,10,57,20.10
2018,07,17,10,58,19.90
2018,07,17,10,59,19.70
2018,07,17,11,00,19.70
2018,07,17,11,01,19.60
2018,07,17,11,02,19.60
2018,07,17,11,03,19.80
2018,07,17,11,04,19.80
2018,07,17,11,05,19.90
2018,07,17,11,06,20.00
2018,07,17,11,07,20.10
2018,07,17,11,08,20.00
2018,07,17,11,09,19.90
2018,07,17,11,10,19.90
2018,07,17,11,11,19.80
2018,07,17,11,12,19.70
2018,07,17,11,13,19.50
2018,07,17,11,14,19.30
2018,07,17,11,15,19.10
2018,07,17,11,16,18.80
2018,07,17,11,17,18.60
2018,07,17,11,18,18.30
2018,07,17,11,19,18.10
2018,07,17,11,20,17.90
2018,07,17,11,21,17.90
2018,07,17,11,22,17.80
2018,07,17,11,23,17.80
2018,07,17,11,24,17.80
2018,07,17,11,25,17.80
2018,07,17,11,26,17.70
2018,07,17,11,27,17.60
2018,07,17,11,28,17.40
2018,07,17,11,29,17.30
2018,07,17,11,30,17.30
2018,07,17,11,31,17.30
2018,07,17,11,32,17.20
2018,07,17,11,33,17.10
2018,07,17,11,34,17.00
2018,07,17,11,35,16.90
2018,07,17,11,36,17.00
2018,07,17,11,37,17.10
2018,07,17,11,38,17.40
2018,07,17,11,39,17.60
2018,07,17,11,40,17.90
2018,07,17,11,41,17.90
2018,07,17,11,42,17.90
2018,07,17,11,43,17.90
2018,07,17,11,44,17.90
2018,07,17,11,45,17.90
2018,07,17,11,46,17.90
2018,07,17,11,47,17.90
2018,07,17,11,48,18.00
2018,07,17,11,49,18.10
2018,07,17,11,50,18.10
2018,07,17,11,51,18.10
2018,07,17,11,52,18.20
2018,07,17,11,53,18.30
2018,07,17,11,54,18.40
2018,07,17,11,55,18.40
2018,07,17,11,56,18.30
2018,07,17,11,57,18.10
2018,07,17,11,58,17.80
2018,07,17,11,59,17.50
2018,07,17,12,00,17.40
2018,07,17,12,01,17.30
2018,07,17,12,02,17.20
2018,07,17,12,03,17.10
2018,07,17,12,04,17.00
2018,07,17,12,05,17.00
2018,07,17,12,06,17.00
2018,07,17,12,07,17.00
2018,07,17,12,08,16.90
2018,07,17,12,09,16.90
2018,07,17,12,10,16.90
2018,07,17,12,11,17.00
2018,07,17,12,12,17.00
2018,07,17,12,13,17.20
2018,07,17,12,14,17.30
2018,07,17,12,15,17.40
2018,07,17,12,16,17.50
2018,07,17,12,17,17.70
2018,07,17,12,18,17.70
2018,07,17,12,19,17.70
2018,07,17,12,20,17.70
2018,07,17,12,21,17.60
2018,07,17,12,22,17.60
2018,07,17,12,23,17.70
2018,07,17,12,24,17.70
2018,07,17,12,25,17.70
2018,07,17,12,26,17.70
2018,07,17,12,27,17.70
2018,07,17,12,28,17.70
2018,07,17,12,29,17.80
2018,07,17,12,30,17.90
2018,07,17,12,31,18.00
2018,07,17,12,32,18.10
2018,07,17,12,33,18.30
2018,07,17,12,34,18.50
2018,07,17,12,35,18.50
2018,07,17,12,36,18.70
2018,07,17,12,37,18.60
2018,07,17,12,38,18.60
2018,07,17,12,39,18.60
2018,07,17,12,40,18.70
2018,07,17,12,41,18.70
2018,07,17,12,42,18.90
2018,07,17,12,43,18.90
2018,07,17,12,44,18.90
2018,07,17,12,45,19.10
2018,07,17,12,46,19.10
2018,07,17,12,47,19.30
2018,07,17,12,48,19.40
2018,07,17,12,49,19.50
2018,07,17,12,50,19.60
2018,07,17,12,51,19.70
2018,07,17,12,52,19.70
2018,07,17,12,53,19.70
2018,07,17,12,54,19.90
2018,07,17,12,55,20.00
2018,07,17,12,56,20.00
2018,07,17,12,57,19.90
2018,07,17,12,58,19.90
2018,07,17,12,59,20.10
2018,07,17,13,00,20.30
2018,07,17,13,01,20.50
2018,07,17,13,02,20.70
2018,07,17,13,03,20.90
2018,07,17,13,04,21.00
2018,07,17,13,05,21.20
2018,07,17,13,06,21.30
2018,07,17,13,07,21.50
2018,07,17,13,08,21.70
2018,07,17,13,09,21.90
2018,07,17,13,10,22.10
2018,07,17,13,11,22.20
2018,07,17,13,12,22.40
2018,07,17,13,13,22.50
2018,07,17,13,14,22.60
2018,07,17,13,15,22.60
2018,07,17,13,16,22.50
2018,07,17,13,17,22.20
2018,07,17,13,18,21.90
2018,07,17,13,19,21.80
2018,07,17,13,20,21.70
2018,07,17,13,21,21.60
2018,07,17,13,22,21.60
2018,07,17,13,23,21.60
2018,07,17,13,24,21.80
2018,07,17,13,25,22.00
2018,07,17,13,26,22.10
2018,07,17,13,27,22.20
2018,07,17,13,28,22.20
2018,07,17,13,29,22.30
2018,07,17,13,30,22.50
2018,07,17,13,31,22.50
2018,07,17,13,32,22.60
2018,07,17,13,33,22.50
2018,07,17,13,34,22.50
2018,07,17,13,35,22.40
2018,07,17,13,36,22.30
2018,07,17,13,37,22.30
2018,07,17,13,38,22.20
2018,07,17,13,39,22.20
2018,07,17,13,40,22.30
2018,07,17,13,41,22.30
2018,07,17,13,42,22.30
2018,07,17,13,43,22.20
2018,07,17,13,44,22.20
2018,07,17,13,45,22.20
2018,07,17,13,46,22.20
2018,07,17,13,47,22.20
2018,07,17,13,48,22.20
2018,07,17,13,49,22.20
2018,07,17,13,50,22.30
2018,07,17,13,51,22.30
2018,07,17,13,52,22.20
2018,07,17,13,53,22.10
2018,07,17,13,54,22.00
2018,07,17,13,55,22.00
2018,07,17,13,56,21.90
2018,07,17,13,57,21.90
2018,07,17,13,58,22.00
2018,07,17,13,59,22.00
2018,07,17,14,00,21.90
2018,07,17,14,01,21.90
2018,07,17,14,02,21.80
2018,07,17,14,03,21.80
2018,07,17,14,04,21.70
2018,07,17,14,05,21.80
2018,07,17,14,06,21.90
2018,07,17,14,07,22.00
2018,07,17,14,08,22.10
2018,07,17,14,09,22.30
2018,07,17,14,10,22.40
2018,07,17,14,11,22.30
2018,07,17,14,12,22.30
2018,07,17,14,13,22.30
2018,07,17,14,14,22.20
2018,07,17,14,15,22.10
2018,07,17,14,16,21.90
2018,07,17,14,17,21.80
2018,07,17,14,18,21.80
2018,07,17,14,19,21.80
2018,07,17,14,20,21.70
2018,07,17,14,21,21.50
2018,07,17,14,22,21.40
2018,07,17,14,23,21.30
2018,07,17,14,24,21.30
2018,07,17,14,25,21.30
2018,07,17,14,26,21.30
2018,07,17,14,27,21.40
2018,07,17,14,28,21.50
2018,07,17,14,29,21.60
2018,07,17,14,30,21.90
2018,07,17,14,31,22.10
2018,07,17,14,32,22.30
2018,07,17,14,33,22.50
2018,07,17,14,34,22.70
2018,07,17,14,35,22.90
2018,07,17,14,36,23.00
2018,07,17,14,37,23.10
2018,07,17,14,38,23.00
2018,07,17,14,39,22.90
2018,07,17,14,40,22.90
2018,07,17,14,41,22.80
2018,07,17,14,42,22.80
2018,07,17,14,43,22.70
2018,07,17,14,44,22.60
2018,07,17,14,45,22.50
2018,07,17,14,46,22.40
2018,07,17,14,47,22.30
2018,07,17,14,48,22.30
2018,07,17,14,49,22.40
2018,07,17,14,50,22.40
2018,07,17,14,51,22.50
2018,07,17,14,52,22.60
2018,07,17,14,53,22.70
2018,07,17,14,54,22.70
2018,07,17,14,55,22.70
2018,07,17,14,56,22.80
2018,07,17,14,57,22.80
2018,07,17,14,58,22.80
2018,07,17,14,59,22.80
2018,07,17,15,00,22.80
2018,07,17,15,01,22.80
2018,07,17,15,02,22.80
2018,07,17,15,03,22.60
2018,07,17,15,04,22.50
2018,07,17,15,05,22.30
2018,07,17,15,06,22.20
2018,07,17,15,07,22.10
2018,07,17,15,08,21.80
2018,07,17,15,09,21.60
2018,07,17,15,10,21.40
2018,07,17,15,11,21.30
2018,07,17,15,12,21.10
2018,07,17,15,13,21.10
2018,07,17,15,14,21.00
2018,07,17,15,15,21.00
2018,07,17,15,16,21.10
2018,07,17,15,17,21.00
2018,07,17,15,18,21.00
2018,07,17,15,19,20.90
2018,07,17,15,20,20.70
2018,07,17,15,21,20.40
2018,07,17,15,22,20.00
2018,07,17,15,23,19.60
2018,07,17,15,24,19.20
2018,07,17,15,25,19.00
2018,07,17,15,26,18.80
2018,07,17,15,27,18.60
2018,07,17,15,28,18.50
2018,07,17,15,29,18.40
2018,07,17,15,30,18.20
2018,07,17,15,31,18.10
2018,07,17,15,32,18.10
2018,07,17,15,33,18.10
2018,07,17,15,34,18.20
2018,07,17,15,35,18.20
2018,07,17,15,36,18.20
2018,07,17,15,37,18.20
2018,07,17,15,38,18.20
2018,07,17,15,39,18.30
2018,07,17,15,40,18.20
2018,07,17,15,41,18.40
2018,07,17,15,42,18.50
2018,07,17,15,43,18.60
2018,07,17,15,44,18.60
2018,07,17,15,45,18.60
2018,07,17,15,46,18.60
2018,07,17,15,47,18.70
2018,07,17,15,48,18.70
2018,07,17,15,49,18.80
2018,07,17,15,50,19.00
2018,07,17,15,51,19.20
2018,07,17,15,52,19.50
2018,07,17,15,53,19.80
2018,07,17,15,54,20.10
2018,07,17,15,55,20.50
2018,07,17,15,56,20.70
2018,07,17,15,57,21.10
2018,07,17,15,58,21.30
2018,07,17,15,59,21.60
2018,07,17,16,00,21.80
2018,07,17,16,01,22.00
2018,07,17,16,02,22.10
2018,07,17,16,03,22.10
2018,07,17,16,04,22.10
2018,07,17,16,05,22.10
2018,07,17,16,06,22.20
2018,07,17,16,07,22.30
2018,07,17,16,08,22.50
2018,07,17,16,09,22.70
2018,07,17,16,10,22.90
2018,07,17,16,11,23.00
2018,07,17,16,12,23.10
2018,07,17,16,13,23.20
2018,07,17,16,14,23.30
2018,07,17,16,15,23.40
2018,07,17,16,16,23.60
2018,07,17,16,17,23.80
2018,07,17,16,18,24.10
2018,07,17,16,19,24.40
2018,07,17,16,20,24.60
2018,07,17,16,21,24.80
2018,07,17,16,22,25.00
2018,07,17,16,23,25.20
2018,07,17,16,24,25.40
2018,07,17,16,25,25.50
2018,07,17,16,26,25.60
2018,07,17,16,27,25.70
2018,07,17,16,28,25.80
2018,07,17,16,29,25.90
2018,07,17,16,30,25.90
2018,07,17,16,31,26.00
2018,07,17,16,32,26.10
2018,07,17,16,33,26.20
2018,07,17,16,34,26.30
2018,07,17,16,35,26.40
2018,07,17,16,36,26.40
2018,07,17,16,37,26.40
2018,07,17,16,38,26.60
2018,07,17,16,39,26.60
2018,07,17,16,40,26.50
2018,07,17,16,41,26.30
2018,07,17,16,42,26.10
2018,07,17,16,43,26.00
2018,07,17,16,44,25.80
2018,07,17,16,45,25.60
2018,07,17,16,46,25.40
2018,07,17,16,47,25.30
2018,07,17,16,48,25.10
2018,07,17,16,49,25.00
2018,07,17,16,50,25.00
2018,07,17,16,51,25.00
2018,07,17,16,52,25.10
2018,07,17,16,53,25.20
2018,07,17,16,54,25.40
2018,07,17,16,55,25.50
2018,07,17,16,56,25.60
2018,07,17,16,57,25.80
2018,07,17,16,58,25.90
2018,07,17,16,59,25.90
2018,07,17,17,00,26.00
2018,07,17,17,01,26.10
2018,07,17,17,02,26.20
2018,07,17,17,03,26.30
2018,07,17,17,04,26.30
2018,07,17,17,05,26.30
2018,07,17,17,06,26.30
2018,07,17,17,07,26.20
2018,07,17,17,08,26.20
2018,07,17,17,09,26.20
2018,07,17,17,10,26.10
2018,07,17,17,11,26.10
2018,07,17,17,12,26.10
2018,07,17,17,13,26.10
2018,07,17,17,14,26.10
2018,07,17,17,15,26.20
2018,07,17,17,16,26.20
2018,07,17,17,17,26.30
2018,07,17,17,18,26.30
2018,07,17,17,19,26.20